Flag for USA

Past Weather in Utah Field House of Natural History, Utah, USA — Yesterday and Last 2 Weeks

Now
69 °F

Sunny.


Feels Like: 69 °F
Forecast: 87 / 55 °F
Wind: 9 mph from Southwest

Location: Rock Springs Weather Reporting Station

Current Time: Jul 17, 2019 at 11:00:42 am

Latest Report: Jul 17, 2019 at 9:54 am


Visibility: 10 mi

Pressure: 29.87 "Hg

Humidity: 36%

Dew Point: 41 °F

Location of Utah Field House of Natural HistoryLocation

Past Weather in Utah Field House of Natural History — Graph

°F

Utah Field House of Natural History Temperature Yesterday

Maximum temperature yesterday: 88 °F (at 1:54 pm)
Minimum temperature yesterday: 54 °F (at 5:54 am)
Average temperature yesterday: 72 °F

High & Low Weather Summary for the Past Weeks

 TemperatureHumidityPressure
High89 °F (Jul 11, 1:54 pm)90% (Jul 5, 4:54 am)30.29 "Hg (Jul 5, 4:54 am)
Low45 °F (Jul 5, 4:54 am)7% (Jul 12, 2:54 pm)29.67 "Hg (Jul 3, 3:54 pm)
Average68 °F34%29.95 "Hg
* Reported Jul 2 9:54 am — Jul 17 9:54 am, Utah Field House of Natural History. Weather by CustomWeather, © 2019

Note: Actual official high and low records may vary slightly from our data, if they occured in-between our weather recording intervals... More about our weather records

Advertising

Utah Field House of Natural History Weather History for the Previous 24 Hours

Scroll right to see more
 ConditionsComfort  
Time TempWeatherWind HumidityBarometerVisibility
9:54 am
Wed, Jul 17
69 °FSunny.9 mph36%29.87 "Hg10 mi
8:54 am65 °FSunny.No wind56%29.88 "Hg10 mi
7:54 am60 °FSunny.6 mph62%29.85 "Hg10 mi
6:54 am55 °FSunny.6 mph69%29.85 "Hg10 mi
5:54 am54 °FClear.6 mph74%29.83 "Hg10 mi
4:54 am56 °FClear.8 mph70%29.81 "Hg10 mi
3:54 am58 °FClear.8 mph62%29.80 "Hg10 mi
2:54 am60 °FClear.7 mph38%29.79 "Hg10 mi
2:05 am56 °FClear.8 mph30%30.08 "Hg10 mi
1:54 am64 °FClear.14 mph25%29.77 "Hg10 mi
12:54 am69 °FClear.3 mph18%29.73 "Hg10 mi
11:54 pm
Tue, Jul 16
68 °FClear.6 mph19%29.75 "Hg10 mi
10:54 pm68 °FClear.7 mph18%29.77 "Hg10 mi
9:54 pm72 °FClear.8 mph16%29.77 "Hg10 mi
8:54 pm75 °FClear.8 mph14%29.77 "Hg10 mi
7:54 pm81 °FSunny.14 mph11%29.75 "Hg10 mi
6:54 pm84 °FSunny.13 mph9%29.75 "Hg10 mi
5:54 pm87 °FSunny.23 mph7%29.74 "Hg10 mi
4:54 pm88 °FSunny.17 mph7%29.73 "Hg10 mi
3:54 pm87 °FSunny.16 mph10%29.77 "Hg10 mi
2:54 pm87 °FSunny.14 mph9%29.78 "Hg10 mi
1:54 pm88 °FSunny.16 mph8%29.78 "Hg10 mi
12:54 pm84 °FSunny.12 mph11%29.81 "Hg10 mi
11:54 am80 °FSunny.9 mph17%29.84 "Hg10 mi
Weather by CustomWeather, © 2019

See weather overview